Tracking 20241 objects as of 27-Jan-2020
HD Live streaming from Space Station
objects crossing your sky now

CZ-2D DEB

Track CZ-2D DEB now!
10-day predictions


NORAD ID: 43200
Int'l Code: 2018-015J
Perigee: 449.2 km
Apogee: 487.6 km
Inclination: 97.5 °
Period: 93.8 minutes
Semi major axis: 6839 km
RCS: Unknown
Launch date: February 2, 2018
Source: People's Republic of China (PRC)
Launch site: Jiuquan Satellite Launch Center, China (JSC)
aabbcc
Your satellite tracking list
Your tracking list is empty




NASA's NSSDC Master Catalog

Two Line Element Set (TLE):
1 43200U 18015J   20026.71583705 +.00003137 +00000-0 +94122-4 0  9996
2 43200 097.5274 176.7584 0028101 296.8602 062.9819 15.34886186110768
Source of the keplerian elements: AFSPC